Voltar ao catálogo

STARLINK-35942

AtivoComunicaçõesVLEO
NORAD 66926·PAYLOAD·🇺🇸 United States

Lançado Dec 7, 2025 de Vandenberg Space Force Base

Loading…

Próximas Passagens (próximas 24 horas)

TLE

AtualizadoSource: CelesTrak SupGP

Época: Sep 15, 2026, 03:22 UTC

1 66926C 25286B   26258.14076389 -.00128480  00000+0 -37939-2 0  2588
2 66926  53.1578 194.8297 0001355  83.2998 289.8930 15.34470428    11

Acompanhe STARLINK-35942 em tempo real com AllMySat

Download on the App Store